SALMON FALLS @ MILTON: From 01/08/2022 22:00 to 01/23/2022 05:00

Date STAGE [FT] FLOW [CFS] LAKE ELEVATION [FT] PRECIPITATION INCREMENT [IN] AIR TEMPERATURE [DEGF]
01/22/2022 22:00 3.35 -- 411.78 0.00 5.8
01/22/2022 21:00 3.35 173.5 411.77 0.00 7.3
01/22/2022 20:00 3.34 170.3 411.78 0.00 7.8
01/22/2022 19:00 3.35 173.5 411.78 0.00 9.1
01/22/2022 18:00 3.35 173.5 411.79 0.00 12.0
01/22/2022 17:00 3.35 173.5 411.79 0.00 15.7
01/22/2022 16:00 3.35 173.5 411.80 0.00 20.5
01/22/2022 15:00 3.35 173.5 411.79 0.00 21.3
01/22/2022 14:00 3.35 173.5 411.79 0.00 19.4
01/22/2022 13:00 3.36 176.7 411.79 0.00 17.3
01/22/2022 12:00 3.35 173.5 411.80 0.00 14.0
01/22/2022 11:00 3.36 176.7 411.80 0.00 10.4
01/22/2022 10:00 3.36 176.7 411.80 0.00 5.1
01/22/2022 09:00 3.36 176.7 411.82 0.00 -3.4
01/22/2022 08:00 3.35 173.5 411.82 0.00 -8.3
01/22/2022 07:00 3.36 176.7 411.83 0.00 -9.2
01/22/2022 06:00 3.36 176.7 411.83 0.00 -8.7
01/22/2022 05:00 3.37 180.0 411.83 0.00 -7.6
01/22/2022 04:00 3.36 176.7 411.83 0.00 -7.3
01/22/2022 03:00 3.36 176.7 411.82 0.00 -6.8
01/22/2022 02:00 3.36 176.7 411.84 0.00 -4.9
01/22/2022 01:00 3.36 176.7 411.84 0.00 -4.4
01/22/2022 00:00 3.37 180.0 411.84 0.00 -3.3
01/21/2022 23:00 3.37 180.0 411.83 0.00 -1.3
01/21/2022 22:00 3.37 180.0 411.84 0.00 0.7
01/21/2022 21:00 3.36 176.7 411.84 0.00 2.8
01/21/2022 20:00 3.37 180.0 411.84 0.00 5.0
01/21/2022 19:00 3.37 180.0 411.84 0.00 7.0
01/21/2022 18:00 3.37 180.0 411.84 0.00 10.1
01/21/2022 17:00 3.37 180.0 411.84 0.00 14.2
01/21/2022 16:00 3.36 176.7 411.84 0.00 16.1
01/21/2022 15:00 3.37 180.0 411.84 0.00 17.0
01/21/2022 14:00 3.37 180.0 411.83 0.00 16.7
01/21/2022 13:00 3.37 180.0 411.84 0.00 15.1
01/21/2022 12:00 3.37 180.0 411.84 0.00 12.7
01/21/2022 11:00 3.37 180.0 411.84 0.00 10.6
01/21/2022 10:00 3.37 180.0 411.85 0.00 7.1
01/21/2022 09:00 3.37 180.0 411.85 0.00 0.5
01/21/2022 08:00 3.36 176.7 411.85 0.00 -2.1
01/21/2022 07:00 3.37 180.0 411.85 0.00 -1.2
01/21/2022 06:00 3.37 180.0 411.85 0.00 0.3
01/21/2022 05:00 3.37 180.0 411.86 0.00 1.8
01/21/2022 04:00 3.36 176.7 411.85 0.00 3.5
01/21/2022 03:00 3.36 176.7 411.86 0.00 5.3
01/21/2022 02:00 3.36 176.7 411.85 0.00 6.7
01/21/2022 01:00 3.37 180.0 411.86 0.00 8.9
01/21/2022 00:00 3.36 176.7 411.84 0.00 9.9
01/20/2022 23:00 3.37 180.0 411.86 0.00 11.0
01/20/2022 22:00 3.37 180.0 411.85 0.00 12.2
01/20/2022 21:00 3.37 180.0 411.86 0.00 13.8
01/20/2022 20:00 3.36 176.7 411.86 0.00 15.6
01/20/2022 19:00 3.37 180.0 411.87 0.00 17.8
01/20/2022 18:00 3.36 176.7 411.86 0.00 19.4
01/20/2022 17:00 3.36 176.7 411.85 0.00 21.4
01/20/2022 16:00 3.35 173.5 411.86 0.00 23.6
01/20/2022 15:00 3.36 176.7 411.86 0.00 26.5
01/20/2022 14:00 3.36 176.7 411.84 0.00 26.4
01/20/2022 13:00 3.35 173.5 411.85 0.00 27.2
01/20/2022 12:00 3.35 173.5 411.83 0.00 26.5
01/20/2022 11:00 3.35 173.5 411.84 0.00 28.4
01/20/2022 10:00 3.35 173.5 411.83 0.00 31.0
01/20/2022 09:00 3.36 176.7 411.83 0.00 32.8
01/20/2022 08:00 3.36 176.7 411.84 0.00 35.9
01/20/2022 07:00 3.36 176.7 411.83 0.00 36.2
01/20/2022 06:00 3.35 173.5 411.82 0.00 33.2
01/20/2022 05:00 3.35 173.5 411.83 0.00 33.1
01/20/2022 04:00 3.35 173.5 411.81 0.00 33.1
01/20/2022 03:00 3.35 173.5 411.82 0.00 33.2
01/20/2022 02:00 3.36 176.7 411.81 0.00 32.8
01/20/2022 01:00 3.35 173.5 411.81 0.00 33.2
01/20/2022 00:00 3.35 173.5 411.81 0.00 33.5
01/19/2022 23:00 3.34 170.3 411.80 0.00 34.2
01/19/2022 22:00 3.34 170.3 411.79 0.00 34.6
01/19/2022 21:00 3.35 173.5 411.80 0.00 32.9
01/19/2022 20:00 3.35 173.5 411.79 0.00 35.3
01/19/2022 19:00 3.34 170.3 411.80 0.00 37.7
01/19/2022 18:00 3.34 170.3 411.79 0.00 38.1
01/19/2022 17:00 3.33 167.2 411.78 0.00 35.8
01/19/2022 16:00 3.34 170.3 411.78 0.00 38.6
01/19/2022 15:00 3.34 170.3 411.77 0.00 40.0
01/19/2022 14:00 3.34 170.3 411.78 0.00 38.1
01/19/2022 13:00 3.34 170.3 411.77 0.00 30.1
01/19/2022 12:00 3.34 170.3 411.77 0.00 23.2
01/19/2022 11:00 3.34 170.3 411.78 0.00 19.1
01/19/2022 10:00 3.34 170.3 411.78 0.00 15.1
01/19/2022 09:00 3.33 167.2 411.76 0.00 14.2
01/19/2022 08:00 3.32 164.1 411.76 0.00 13.2
01/19/2022 07:00 3.32 164.1 411.74 0.00 12.8
01/19/2022 06:00 3.33 167.2 411.77 0.00 11.3
01/19/2022 05:00 3.33 167.2 411.76 0.00 9.7
01/19/2022 04:00 3.33 167.2 411.74 0.00 9.3
01/19/2022 03:00 3.32 164.1 411.75 0.00 8.0
01/19/2022 02:00 3.33 167.2 411.74 0.00 7.8
01/19/2022 01:00 3.32 164.1 411.76 0.00 8.4
01/19/2022 00:00 3.32 164.1 411.75 0.00 8.9
01/18/2022 23:00 3.32 164.1 411.74 0.00 9.3
01/18/2022 22:00 3.31 161.0 411.72 0.00 9.9
01/18/2022 21:00 3.32 164.1 411.72 0.00 10.8
01/18/2022 20:00 3.32 164.1 411.72 0.00 12.1
01/18/2022 19:00 3.32 164.1 411.73 0.00 13.6
01/18/2022 18:00 3.31 161.0 411.70 0.00 15.1
01/18/2022 17:00 3.31 161.0 411.71 0.00 16.6
01/18/2022 16:00 3.30 158.0 411.73 0.00 18.6
01/18/2022 15:00 3.31 161.0 411.69 0.00 21.0
01/18/2022 14:00 3.30 158.0 411.69 0.00 21.2
01/18/2022 13:00 3.30 158.0 411.65 0.00 21.9
01/18/2022 12:00 3.30 158.0 411.69 0.00 23.2
01/18/2022 11:00 3.29 155.0 411.67 0.00 22.4
01/18/2022 10:00 3.30 158.0 411.66 0.00 20.4
01/18/2022 09:00 3.28 152.1 411.68 0.00 20.8
01/18/2022 08:00 3.29 155.0 411.66 0.00 20.9
01/18/2022 07:00 3.30 158.0 411.66 0.00 22.0
01/18/2022 06:00 3.29 155.0 411.67 0.00 23.0
01/18/2022 05:00 3.30 158.0 411.66 0.00 24.4
01/18/2022 04:00 3.29 155.0 411.66 0.00 26.3
01/18/2022 03:00 3.29 155.0 411.66 0.00 29.6
01/18/2022 02:00 3.29 155.0 411.65 0.00 30.6
01/18/2022 01:00 3.28 152.1 411.63 0.00 32.2
01/18/2022 00:00 3.28 152.1 411.64 0.00 34.6
01/17/2022 23:00 3.28 152.1 411.63 0.00 34.8
01/17/2022 22:00 3.27 149.2 411.64 0.00 35.2
01/17/2022 21:00 3.28 152.1 411.62 0.00 35.5
01/17/2022 20:00 3.28 152.1 411.63 0.00 36.4
01/17/2022 19:00 3.27 149.2 411.61 0.00 36.8
01/17/2022 18:00 3.27 149.2 411.62 0.00 38.0
01/17/2022 17:00 3.27 149.2 411.61 0.00 39.2
01/17/2022 16:00 3.27 149.2 411.62 0.00 40.5
01/17/2022 15:00 3.27 149.2 411.62 0.00 42.3
01/17/2022 14:00 3.27 149.2 411.61 0.00 44.3
01/17/2022 13:00 3.27 149.2 411.62 0.04 44.0
01/17/2022 12:00 3.26 146.3 411.59 0.24 45.0
01/17/2022 11:00 3.27 149.2 411.59 0.73 42.0
01/17/2022 10:00 3.25 143.5 411.58 0.00 36.5
01/17/2022 09:00 3.27 149.2 411.54 0.00 32.5
01/17/2022 08:00 3.26 146.3 411.52 0.00 31.9
01/17/2022 07:00 3.25 143.5 411.52 0.00 28.6
01/17/2022 06:00 3.24 140.7 411.50 0.00 24.4
01/17/2022 05:00 3.25 143.5 411.48 0.00 22.2
01/17/2022 04:00 3.25 143.5 411.49 0.00 21.8
01/17/2022 03:00 3.25 143.5 411.49 0.00 21.6
01/17/2022 02:00 3.25 143.5 411.48 0.00 20.5
01/17/2022 01:00 3.25 143.5 411.50 0.00 17.4
01/17/2022 00:00 3.25 143.5 411.49 0.00 16.0
01/16/2022 23:00 3.25 143.5 411.50 0.00 14.5
01/16/2022 22:00 3.25 143.5 411.50 0.00 12.8
01/16/2022 21:00 3.25 143.5 411.50 0.00 12.5
01/16/2022 20:00 3.25 143.5 411.48 0.00 11.7
01/16/2022 19:00 3.25 143.5 411.50 0.00 14.7
01/16/2022 18:00 3.26 146.3 411.50 0.00 16.6
01/16/2022 17:00 3.25 143.5 411.50 0.00 19.7
01/16/2022 16:00 3.25 143.5 411.49 0.00 21.8
01/16/2022 15:00 3.26 146.3 411.49 0.00 22.2
01/16/2022 14:00 3.26 146.3 411.49 0.00 22.4
01/16/2022 13:00 3.25 143.5 411.50 0.00 17.9
01/16/2022 12:00 3.25 143.5 411.51 0.00 15.8
01/16/2022 11:00 3.26 146.3 411.50 0.00 10.8
01/16/2022 10:00 3.25 143.5 411.51 0.00 7.7
01/16/2022 09:00 3.26 146.3 411.51 0.00 0.2
01/16/2022 08:00 3.26 146.3 411.51 0.00 -3.7
01/16/2022 07:00 3.26 146.3 411.51 0.00 -2.6
01/16/2022 06:00 3.26 146.3 411.53 0.00 -2.9
01/16/2022 05:00 3.26 146.3 411.52 0.00 -2.7
01/16/2022 04:00 3.26 146.3 411.53 0.00 -2.3
01/16/2022 03:00 3.26 146.3 411.54 0.00 -1.4
01/16/2022 02:00 3.26 146.3 411.53 0.00 -0.6
01/16/2022 01:00 3.26 146.3 411.54 0.00 -0.1
01/16/2022 00:00 3.26 146.3 411.55 0.00 -0.2
01/15/2022 23:00 3.27 149.2 411.53 0.00 0.4
01/15/2022 22:00 3.26 146.3 411.56 0.00 0.9
01/15/2022 21:00 3.27 149.2 411.55 0.00 1.6
01/15/2022 20:00 3.27 149.2 411.54 0.00 2.3
01/15/2022 19:00 3.26 146.3 411.54 0.00 2.8
01/15/2022 18:00 3.27 149.2 411.54 0.00 3.8
01/15/2022 17:00 3.27 149.2 411.56 0.00 4.8
01/15/2022 16:00 3.26 146.3 411.56 0.00 6.1
01/15/2022 15:00 3.26 146.3 411.56 0.00 9.0
01/15/2022 14:00 3.27 149.2 411.55 0.00 8.5
01/15/2022 13:00 3.28 152.1 411.56 0.00 7.7
01/15/2022 12:00 3.27 149.2 411.58 0.00 5.3
01/15/2022 11:00 3.27 149.2 411.55 0.00 3.1
01/15/2022 10:00 3.27 149.2 411.57 0.00 0.9
01/15/2022 09:00 3.27 149.2 411.56 0.00 -1.2
01/15/2022 08:00 3.28 152.1 411.58 0.00 -2.3
01/15/2022 07:00 3.27 149.2 411.57 0.00 -1.6
01/15/2022 06:00 3.26 146.3 411.58 0.00 0.2
01/15/2022 05:00 3.26 146.3 411.56 0.00 2.0
01/15/2022 04:00 3.27 149.2 411.56 0.00 2.9
01/15/2022 03:00 3.28 152.1 411.56 0.00 5.3
01/15/2022 02:00 3.27 149.2 411.57 0.00 6.6
01/15/2022 01:00 3.27 149.2 411.59 0.00 7.7
01/15/2022 00:00 3.27 149.2 411.57 0.00 10.4
01/14/2022 23:00 3.27 149.2 411.59 0.00 12.6
01/14/2022 22:00 3.27 149.2 411.59 0.00 16.8
01/14/2022 21:00 3.28 152.1 411.59 0.00 19.2
01/14/2022 20:00 3.27 149.2 411.59 0.00 21.5
01/14/2022 19:00 3.28 152.1 411.58 0.00 25.4
01/14/2022 18:00 3.27 149.2 411.58 0.00 28.8
01/14/2022 17:00 3.27 149.2 411.60 0.00 31.2
01/14/2022 16:00 3.27 149.2 411.59 0.00 32.8
01/14/2022 15:00 3.27 149.2 411.59 0.00 34.9
01/14/2022 14:00 3.28 152.1 411.57 0.00 36.3
01/14/2022 13:00 3.27 149.2 411.57 0.00 36.2
01/14/2022 12:00 3.27 149.2 411.59 0.00 37.4
01/14/2022 11:00 3.28 152.1 411.60 0.00 36.6
01/14/2022 10:00 3.28 152.1 411.57 0.00 33.6
01/14/2022 09:00 3.26 146.3 411.57 0.00 31.2
01/14/2022 08:00 3.28 152.1 411.58 0.00 29.3
01/14/2022 07:00 3.27 149.2 411.58 0.00 29.6
01/14/2022 06:00 3.27 149.2 411.57 0.00 29.3
01/14/2022 05:00 3.26 146.3 411.57 0.00 29.4
01/14/2022 04:00 3.27 149.2 411.58 0.00 29.1
01/14/2022 03:00 3.27 149.2 411.58 0.00 30.6
01/14/2022 02:00 3.27 149.2 411.59 0.00 30.8
01/14/2022 01:00 3.27 149.2 411.57 0.00 30.4
01/14/2022 00:00 3.27 149.2 411.58 0.00 30.4
01/13/2022 23:00 3.27 149.2 411.58 0.00 29.9
01/13/2022 22:00 3.28 152.1 411.58 0.00 28.5
01/13/2022 21:00 3.28 152.1 411.57 0.00 28.9
01/13/2022 20:00 3.27 149.2 411.57 0.00 28.1
01/13/2022 19:00 3.27 149.2 411.57 0.00 27.4
01/13/2022 18:00 3.28 152.1 411.58 0.00 29.7
01/13/2022 17:00 3.28 152.1 411.56 0.00 30.6
01/13/2022 16:00 3.27 149.2 411.57 0.00 32.5
01/13/2022 15:00 3.27 149.2 411.57 0.00 34.4
01/13/2022 14:00 3.27 149.2 411.57 0.00 32.6
01/13/2022 13:00 3.27 149.2 411.57 0.00 31.1
01/13/2022 12:00 3.27 149.2 411.57 0.00 30.0
01/13/2022 11:00 3.39 186.6 411.56 0.00 27.6
01/13/2022 10:00 3.40 190.0 411.58 0.00 25.5
01/13/2022 09:00 3.40 190.0 411.57 0.00 24.8
01/13/2022 08:00 3.40 190.0 411.57 0.00 23.4
01/13/2022 07:00 3.39 186.6 411.58 0.00 22.8
01/13/2022 06:00 3.40 190.0 411.57 0.00 22.6
01/13/2022 05:00 3.40 190.0 411.59 0.00 21.1
01/13/2022 04:00 3.41 193.4 411.59 0.00 20.0
01/13/2022 03:00 3.40 190.0 411.59 0.00 23.0
01/13/2022 02:00 3.41 193.4 411.60 0.00 24.9
01/13/2022 01:00 3.41 193.4 411.59 0.00 25.1
01/13/2022 00:00 3.40 190.0 411.59 0.00 25.0
01/12/2022 23:00 3.41 193.4 411.60 0.00 26.9
01/12/2022 22:00 3.41 193.4 411.61 0.00 28.1
01/12/2022 21:00 3.41 193.4 411.61 0.00 27.7
01/12/2022 20:00 3.41 193.4 411.62 0.00 27.0
01/12/2022 19:00 3.41 193.4 411.61 0.00 26.8
01/12/2022 18:00 3.42 196.9 411.62 0.00 27.9
01/12/2022 17:00 3.42 196.9 411.62 0.00 28.6
01/12/2022 16:00 3.41 193.4 411.62 0.00 29.6
01/12/2022 15:00 3.41 193.4 411.61 0.00 29.3
01/12/2022 14:00 3.41 193.4 411.62 0.00 28.7
01/12/2022 13:00 3.42 196.9 411.62 0.00 26.5
01/12/2022 12:00 3.41 193.4 411.63 0.00 23.3
01/12/2022 11:00 3.41 193.4 411.62 0.00 17.1
01/12/2022 10:00 3.42 196.9 411.65 0.00 10.8
01/12/2022 09:00 3.42 196.9 411.64 0.00 7.5
01/12/2022 08:00 3.43 200.3 411.65 0.00 3.2
01/12/2022 07:00 3.42 196.9 411.64 0.00 3.7
01/12/2022 06:00 3.42 196.9 411.67 0.00 -0.6
01/12/2022 05:00 3.42 196.9 411.66 0.00 1.0
01/12/2022 04:00 3.42 196.9 411.67 0.00 -0.5
01/12/2022 03:00 3.43 200.3 411.68 0.00 0.4
01/12/2022 02:00 3.43 200.3 411.68 0.00 -1.7
01/12/2022 01:00 3.43 200.3 411.68 0.00 -2.0
01/12/2022 00:00 3.43 200.3 411.68 0.00 -1.0
01/11/2022 23:00 3.44 203.9 411.69 0.00 -1.5
01/11/2022 22:00 3.44 203.9 411.70 0.00 -0.7
01/11/2022 21:00 3.43 200.3 411.69 0.00 1.4
01/11/2022 20:00 3.43 200.3 411.70 0.00 1.1
01/11/2022 19:00 3.43 200.3 411.71 0.00 2.2
01/11/2022 18:00 3.44 203.9 411.71 0.00 2.3
01/11/2022 17:00 3.44 203.9 411.73 0.00 4.8
01/11/2022 16:00 3.44 203.9 411.72 0.00 6.5
01/11/2022 15:00 3.44 203.9 411.73 0.00 7.8
01/11/2022 14:00 3.44 203.9 411.72 0.00 6.8
01/11/2022 13:00 3.45 207.5 411.73 0.00 7.9
01/11/2022 12:00 3.45 207.5 411.73 0.00 5.9
01/11/2022 11:00 3.44 203.9 411.71 0.00 4.2
01/11/2022 10:00 3.44 203.9 411.75 0.00 3.7
01/11/2022 09:00 3.45 207.5 411.75 0.00 1.8
01/11/2022 08:00 3.45 207.5 411.76 0.00 0.6
01/11/2022 07:00 3.45 207.5 411.75 0.00 2.1
01/11/2022 06:00 3.45 207.5 411.77 0.00 3.4
01/11/2022 05:00 3.45 207.5 411.79 0.00 5.4
01/11/2022 04:00 3.45 207.5 411.78 0.00 7.5
01/11/2022 03:00 3.45 207.5 411.78 0.00 9.2
01/11/2022 02:00 3.46 211.1 411.79 0.00 11.2
01/11/2022 01:00 3.46 211.1 411.80 0.00 12.8
01/11/2022 00:00 3.45 207.5 411.80 0.00 14.3
01/10/2022 23:00 3.47 214.7 411.80 0.00 11.8
01/10/2022 22:00 3.46 211.1 411.81 0.00 12.3
01/10/2022 21:00 3.46 211.1 411.81 0.00 12.4
01/10/2022 20:00 3.46 211.1 411.81 0.00 14.2
01/10/2022 19:00 3.46 211.1 411.81 0.00 15.4
01/10/2022 18:00 3.46 211.1 411.81 0.00 18.5
01/10/2022 17:00 3.47 214.7 411.82 0.00 21.3
01/10/2022 16:00 3.47 214.7 411.82 0.00 22.4
01/10/2022 15:00 3.47 214.7 411.82 0.00 23.5
01/10/2022 14:00 3.46 211.1 411.83 0.00 22.4
01/10/2022 13:00 3.46 211.1 411.82 0.00 22.1
01/10/2022 12:00 3.47 214.7 411.81 0.00 23.1
01/10/2022 11:00 3.47 214.7 411.82 0.00 23.6
01/10/2022 10:00 3.47 214.7 411.83 0.00 22.7
01/10/2022 09:00 3.47 214.7 411.85 0.00 22.1
01/10/2022 08:00 3.47 214.7 411.83 0.00 21.9
01/10/2022 07:00 3.47 214.7 411.84 0.00 22.4
01/10/2022 06:00 3.47 214.7 411.83 0.00 24.1
01/10/2022 05:00 3.47 214.7 411.86 0.00 26.2
01/10/2022 04:00 3.47 214.7 411.81 0.00 29.4
01/10/2022 03:00 3.47 214.7 411.82 0.01 31.3
01/10/2022 02:00 3.47 214.7 411.87 0.00 34.3
01/10/2022 01:00 3.48 218.4 411.86 0.00 36.6
01/10/2022 00:00 3.48 218.4 411.86 0.00 36.7
01/09/2022 23:00 3.48 218.4 411.87 0.00 35.6
01/09/2022 22:00 3.48 218.4 411.85 0.01 36.0
01/09/2022 21:00 3.48 218.4 411.87 0.01 36.1
01/09/2022 20:00 3.48 218.4 411.87 0.00 34.5
01/09/2022 19:00 3.48 218.4 411.86 0.01 34.4
01/09/2022 18:00 3.48 218.4 411.86 0.00 35.4
01/09/2022 17:00 3.48 218.4 411.87 0.00 35.0
01/09/2022 16:00 3.47 214.7 411.86 0.00 34.4
01/09/2022 15:00 3.48 218.4 411.87 0.00 34.1
01/09/2022 14:00 3.48 218.4 411.86 0.00 34.0
01/09/2022 13:00 3.47 214.7 411.85 0.00 32.9
01/09/2022 12:00 3.48 218.4 411.86 0.00 32.2
01/09/2022 11:00 3.48 218.4 411.86 0.00 31.8
01/09/2022 10:00 3.48 218.4 411.87 0.00 28.4
01/09/2022 09:00 3.48 218.4 411.87 0.00 24.9
01/09/2022 08:00 3.48 218.4 411.88 0.00 22.1
01/09/2022 07:00 3.49 222.2 411.88 0.00 20.1
01/09/2022 06:00 3.49 222.2 411.89 0.00 19.1
01/09/2022 05:00 3.49 222.2 411.89 0.00 17.9
01/09/2022 04:00 3.49 222.2 411.90 0.00 16.7
01/09/2022 03:00 3.49 222.2 411.89 0.00 13.6
01/09/2022 02:00 3.49 222.2 411.90 0.00 8.2
01/09/2022 01:00 3.49 222.2 411.91 0.00 10.2
01/09/2022 00:00 3.50 226.0 411.90 0.00 6.4
01/08/2022 23:00 -- -- -- -- --
01/08/2022 22:00 -- -- -- -- --